Weather History for Charleston, WV

Change the Weather History Date:

Friday, November 8, 2013

  Actual Average Record
Temperature  
Mean Temperature 41 °F 50 °F  
Max Temperature 51 °F 60 °F 79 °F (1916)
Min Temperature 31 °F 39 °F 19 °F (1971)
Degree Days  
Heating Degree Days 24 16  
Month to date heating degree days 107 116  
Since 1 July heating degree days 413 456  
Cooling Degree Days 0 0  
Month to date cooling degree days 0 0  
Year to date cooling degree days 1121 1094  
Moisture  
Dew Point 29 °F    
Average Humidity 68    
Maximum Humidity 100    
Minimum Humidity 36    
Precipitation  
Precipitation 0.00 in 0.12 in 1.55 in (1996)
Month to date precipitation 0.76 0.95  
Year to date precipitation 38.56 37.98  
Snow  
Snow 0.00 in - - ()
Month to date snowfall 0.0  
Since 1 September snowfall T  
Snow Depth 0.00 in    
Sea Level Pressure  
Sea Level Pressure 30.30 in    
Wind  
Wind Speed 4 mph (WSW)    
Max Wind Speed 15 mph    
Max Gust Speed 21 mph    
Visibility 10 miles    
Events      
T = Trace of Precipitation, MM = Missing Value Source: NWS Daily Summary

Daily Weather History Graph

Daily Weather History Graph

Search for Another Location

Airport:

Trip Planner

Search our weather history database for the weather conditions in past years. The results will help you decide how hot, cold, wet, or windy it might be!

Date:

Astronomy

Nov. 08, 2013 Rise Set
Actual Time 7:00 AM EST 5:19 PM EST
Civil Twilight 6:32 AM EST 5:47 PM EST
Nautical Twilight 6:01 AM EST 6:18 PM EST
Astronomical Twilight 5:29 AM EST 6:49 PM EST
Moon 11:55 AM EST (11/8) 10:38 PM EST (11/8)
Length of Visible Light 11h 14m
Length of Day
10h 18m
Waxing Crescent, 33% of the Moon is Illuminated
Nov 8
Waxing Crescent
Nov 10
First Quarter
Nov 17
Full
Nov 25
Last Quarter
Dec 2
New

Hourly Weather History & Observations

Time (EST) Temp. Windchill Dew Point Humidity Pressure Visibility Wind Dir Wind Speed Gust Speed Precip Events Conditions
12:54 AM 34.0 °F - 32.0 °F 92% 30.23 in 10.0 mi Calm Calm - N/A   Clear
1:54 AM 32.0 °F - 32.0 °F 100% 30.22 in 10.0 mi Calm Calm - N/A   Mostly Cloudy
2:54 AM 35.1 °F 31.0 °F 32.0 °F 89% 30.23 in 10.0 mi WSW 4.6 mph - N/A   Overcast
3:54 AM 36.0 °F 29.6 °F 30.0 °F 79% 30.22 in 10.0 mi SW 8.1 mph - N/A   Mostly Cloudy
4:54 AM 35.1 °F 30.1 °F 30.0 °F 82% 30.24 in 10.0 mi WSW 5.8 mph - N/A   Partly Cloudy
5:54 AM 36.0 °F 29.6 °F 28.9 °F 76% 30.27 in 10.0 mi WSW 8.1 mph - N/A   Mostly Cloudy
6:54 AM 36.0 °F 29.0 °F 28.9 °F 76% 30.30 in 10.0 mi West 9.2 mph - N/A   Mostly Cloudy
7:54 AM 36.0 °F 30.3 °F 30.0 °F 79% 30.34 in 10.0 mi West 6.9 mph - N/A   Partly Cloudy
8:54 AM 37.9 °F - 30.9 °F 76% 30.36 in 10.0 mi Calm Calm - N/A   Scattered Clouds
9:24 AM 39.2 °F 34.2 °F 32.0 °F 75% 30.35 in 10.0 mi West 6.9 mph - N/A   Mostly Cloudy
9:54 AM 39.9 °F 35.1 °F 33.1 °F 77% 30.38 in 10.0 mi West 6.9 mph - N/A   Mostly Cloudy
10:54 AM 43.0 °F 39.5 °F 32.0 °F 65% 30.38 in 10.0 mi Variable 5.8 mph - N/A   Mostly Cloudy
11:25 AM 44.6 °F 42.2 °F 28.4 °F 53% 30.36 in 10.0 mi Variable 4.6 mph 17.3 mph N/A   Mostly Cloudy
11:54 AM 45.0 °F 40.6 °F 27.0 °F 49% 30.36 in 10.0 mi West 8.1 mph - N/A   Scattered Clouds
12:54 PM 48.0 °F - 27.0 °F 44% 30.33 in 10.0 mi WSW 10.4 mph 17.3 mph N/A   Scattered Clouds
1:54 PM 48.9 °F - 26.1 °F 41% 30.31 in 10.0 mi Calm Calm - N/A   Scattered Clouds
2:54 PM 50.0 °F - 25.0 °F 38% 30.30 in 10.0 mi WSW 8.1 mph - N/A   Scattered Clouds
3:54 PM 50.0 °F - 25.0 °F 38% 30.30 in 10.0 mi WSW 6.9 mph - N/A   Partly Cloudy
4:54 PM 48.0 °F - 24.1 °F 39% 30.29 in 10.0 mi West 5.8 mph - N/A   Partly Cloudy
5:54 PM 46.0 °F 44.8 °F 24.1 °F 42% 30.30 in 10.0 mi West 3.5 mph - N/A   Clear
6:54 PM 42.1 °F - 26.1 °F 53% 30.30 in 10.0 mi Calm Calm - N/A   Clear
7:54 PM 37.9 °F - 27.0 °F 65% 30.30 in 10.0 mi Calm Calm - N/A   Clear
8:54 PM 36.0 °F - 27.0 °F 70% 30.31 in 10.0 mi Calm Calm - N/A   Clear
9:54 PM 34.0 °F - 28.0 °F 79% 30.32 in 10.0 mi Calm Calm - N/A   Clear
10:54 PM 32.0 °F - 30.0 °F 92% 30.31 in 10.0 mi Calm Calm - N/A   Clear
11:54 PM 32.0 °F - 28.9 °F 88% 30.31 in 10.0 mi Calm Calm - N/A   Clear